Change the Weather History Date:

Monday, December 9, 2013

  Actual Average Record
Temperature  
Mean Temperature 76 °F -  
Max Temperature 90 °F 87 °F 96 °F (2001)
Min Temperature 63 °F 67 °F 63 °F (2013)
Cooling Degree Days 12    
Growing Degree Days 26 (Base 50)    
Moisture  
Dew Point 57 °F    
Average Humidity 49    
Maximum Humidity 81    
Minimum Humidity 16    
Precipitation  
Precipitation 0.00 in - - ()
Sea Level Pressure  
Sea Level Pressure 29.82 in    
Wind  
Wind Speed 4 mph ()    
Max Wind Speed 12 mph    
Max Gust Speed -    
Visibility 1.6 miles    
Events      
Averages and records for this station are not official NWS values.
T = Trace of Precipitation, MM = Missing Value Source: Averaged Metar Reports

Daily Weather History Graph

Daily Weather History Graph

Search for Another Location

Airport or City:

Trip Planner

Search our weather history database for the weather conditions in past years. The results will help you decide how hot, cold, wet, or windy it might be!

Date:

Astronomy

Dec. 09, 2013 Rise Set
Actual Time 7:00 AM IST 6:01 PM IST
Civil Twilight 6:36 AM IST 6:25 PM IST
Nautical Twilight 6:09 AM IST 6:52 PM IST
Astronomical Twilight 5:42 AM IST 7:19 PM IST
Moon 12:21 PM IST (12/9) No Moon Set
Length of Visible Light 11h 48m
Length of Day
11h 00m
Waxing Crescent, 46% of the Moon is Illuminated
Dec 9
Waxing Crescent
Dec 9
First Quarter
Dec 17
Full
Dec 25
Last Quarter
Jan 1
New

Hourly Weather History & Observations

Time (IST) Temp. Heat Index Dew Point Humidity Pressure Visibility Wind Dir Wind Speed Gust Speed Precip Events Conditions
12:10 AM 75.2 °F - 60.8 °F 61% 29.86 in 1.5 mi SE 5.8 mph - N/A   Haze
12:40 AM 75.2 °F - 60.8 °F 61% 29.86 in 1.4 mi East 3.5 mph - N/A   Haze
1:10 AM 73.4 °F - 60.8 °F 65% 29.83 in 1.1 mi Calm Calm - N/A   Haze
1:40 AM 73.4 °F - 62.6 °F 69% 29.83 in 1.2 mi NNE 3.5 mph - N/A   Haze
2:10 AM 73.4 °F - 62.6 °F 69% 29.83 in 1.3 mi Calm Calm - N/A   Haze
2:30 AM 67 °F - 63 °F 81% 29.83 in 1 mi Calm Calm - -   Haze
2:40 AM 73.4 °F - 59.0 °F 61% 29.83 in 1.3 mi ENE 5.8 mph - N/A   Haze
3:10 AM 73.4 °F - 59.0 °F 61% 29.83 in 1.4 mi East 6.9 mph - N/A   Haze
3:40 AM 71.6 °F - 59.0 °F 64% 29.80 in 1.3 mi ENE 3.5 mph - N/A   Haze
4:10 AM 71.6 °F - 59.0 °F 64% 29.80 in 1.3 mi ESE 3.5 mph - N/A   Haze
4:40 AM 69.8 °F - 57.2 °F 64% 29.80 in 1.3 mi ESE 6.9 mph - N/A   Haze
5:10 AM 69.8 °F - 57.2 °F 64% 29.83 in 1.4 mi East 4.6 mph - N/A   Haze
5:30 AM 64 °F - 60 °F 81% 29.83 in 1 mi Calm Calm - -   Haze
5:40 AM 69.8 °F - 57.2 °F 64% 29.83 in 1.4 mi East 5.8 mph - N/A   Haze
6:10 AM 69.8 °F - 57.2 °F 64% 29.83 in 1.4 mi Calm Calm - N/A   Haze
6:40 AM 71.6 °F - 57.2 °F 60% 29.83 in 1.4 mi SSE 3.5 mph - N/A   Haze
7:10 AM 69.8 °F - 57.2 °F 64% 29.83 in 1.3 mi East 5.8 mph - N/A   Haze
7:40 AM 71.6 °F - 57.2 °F 60% 29.86 in 1.4 mi ENE 3.5 mph - N/A   Haze
8:10 AM 73.4 °F - 57.2 °F 57% 29.86 in 1.3 mi East 3.5 mph - N/A   Haze
8:30 AM 69 °F - 60 °F 65% 29.88 in 1 mi Calm Calm - -   Smoke
8:40 AM 75.2 °F - 59.0 °F 57% 29.89 in 1.3 mi ESE 3.5 mph - N/A   Haze
9:10 AM 77.0 °F - 53.6 °F 44% 29.89 in 1.6 mi East 5.8 mph - N/A   Smoke
9:40 AM 78.8 °F - 51.8 °F 39% 29.89 in 1.7 mi SE 5.8 mph - N/A   Smoke
10:40 AM 84.2 °F - 48.2 °F 29% 29.89 in 2.2 mi SE 5.8 mph - N/A   Smoke
11:10 AM 86.0 °F - 46.4 °F 25% 29.89 in 2.5 mi ESE 5.8 mph - N/A   Smoke
11:30 AM 85 °F - 53 °F 23% 29.87 in 1 mi Calm Calm - -   Smoke
11:40 AM 87.8 °F - 46.4 °F 24% 29.86 in 2.5 mi ESE 5.8 mph - N/A   Smoke
12:10 PM 89.6 °F - 44.6 °F 21% 29.86 in 2.2 mi East 4.6 mph - N/A   Smoke
12:40 PM 89.6 °F - 41.0 °F 18% 29.83 in - East 4.6 mph - N/A   Smoke
1:10 PM 89.6 °F 87.3 °F 53.6 °F 29% 29.80 in - WNW 5.8 mph - N/A   Smoke
1:40 PM 87.8 °F 86.5 °F 57.2 °F 35% 29.77 in - WNW 4.6 mph - N/A   Smoke
2:30 PM 90 °F - 50 °F 16% 29.77 in 1 mi North 2.3 mph - -   Smoke
2:40 PM 87.8 °F 86.5 °F 57.2 °F 35% 29.77 in 2.2 mi NW 8.1 mph - N/A   Smoke
3:10 PM 87.8 °F 86.1 °F 55.4 °F 33% 29.74 in 2.2 mi WNW 11.5 mph - N/A   Smoke
3:40 PM 87.8 °F 87.1 °F 59.0 °F 38% 29.74 in 2.2 mi WNW 10.4 mph - N/A   Smoke
4:10 PM 86.0 °F 86.1 °F 60.8 °F 43% 29.74 in 2.2 mi WNW 11.5 mph - N/A   Smoke
4:40 PM 86.0 °F 86.1 °F 60.8 °F 43% 29.74 in 2.2 mi NW 8.1 mph - N/A   Smoke
5:10 PM 84.2 °F 83.5 °F 57.2 °F 40% 29.74 in 2.2 mi WNW 9.2 mph - N/A   Smoke
5:30 PM 83 °F - 58 °F 32% 29.75 in 1 mi NNW 4.6 mph - -   Smoke
5:40 PM 84.2 °F 83.5 °F 57.2 °F 40% 29.74 in 2.2 mi NNW 8.1 mph - N/A   Smoke
6:40 PM 80.6 °F 81.1 °F 59.0 °F 48% 29.77 in 1.7 mi WNW 5.8 mph - N/A   Smoke
7:10 PM 80.6 °F 81.5 °F 60.8 °F 51% 29.77 in 1.6 mi NNW 5.8 mph - N/A   Smoke
7:40 PM 80.6 °F 81.1 °F 59.0 °F 48% 29.80 in 1.6 mi NNW 5.8 mph - N/A   Smoke
8:10 PM 80.6 °F 81.1 °F 59.0 °F 48% 29.80 in 1.6 mi NNW 5.8 mph - N/A   Smoke
8:40 PM 78.8 °F - 59.0 °F 51% 29.83 in 1.6 mi North 4.6 mph - N/A   Smoke
9:10 PM 78.8 °F - 57.2 °F 47% 29.83 in 1.6 mi NNE 3.5 mph - N/A   Smoke
9:40 PM 78.8 °F - 55.4 °F 44% 29.83 in 1.6 mi North 4.6 mph - N/A   Smoke
10:10 PM 80.6 °F 80.3 °F 53.6 °F 39% 29.83 in 1.6 mi North 4.6 mph - N/A   Smoke
10:40 PM 78.8 °F - 55.4 °F 44% 29.83 in 1.6 mi Calm Calm - N/A   Smoke
11:10 PM 77.0 °F - 57.2 °F 50% 29.83 in 1.3 mi Calm Calm - N/A   Smoke
11:30 PM 70 °F - 60 °F 63% 29.82 in 1 mi Calm Calm - -   Smoke
11:40 PM 77.0 °F - 55.4 °F 47% 29.83 in 1.1 mi Calm Calm - N/A   Smoke